User: anonymous
Location: Durham
(54.7770°N, 1.5720°W)
Time: 05:00:53
(UTC+01:00)
Language:

ISS - Orbit

View from above orbital plane
View from above orbital plane
View from above satellite
View from above satellite

Ground track
Ground track

The orbit data is extracted from the following two-line orbital elements,

1 25544U 98067A   14273.87368299  .00012387  00000-0  21877-3 0  1800
2 25544 051.6468 295.7373 0002080 127.3103 291.0075 15.50758781907721
Epoch (UTC): 30 September 2014 20:58:06
Eccentricity: 0.0002080
inclination: 51.6468°
perigee height: 413 km
apogee height: 416 km
right ascension of ascending node: 295.7373°
argument of perigee: 127.3103°
revolutions per day: 15.50758781
mean anomaly at epoch: 291.0075°
orbit number at epoch: 90772

The dashed part of the orbit path shows where the satellite is in the earth's shadow,  

DLR